owner,sensor,date,latitude,longitude,vertical_datum,sea_water_practical_salinity,qcFlag 
DISL,ioos:station:DISL:KATA:1,2013-12-01T00:00:00Z,30.2583,-88.2131,4.122,29.25,1111122 
DISL,ioos:station:DISL:KATA:1,2013-12-01T00:30:00Z,30.2583,-88.2131,4.132,29.34,1111122 
DISL,ioos:station:DISL:KATA:1,2013-12-01T01:00:00Z,30.2583,-88.2131,4.142,29.35,1111122 
DISL,ioos:station:DISL:KATA:1,2013-12-01T01:30:00Z,30.2583,-88.2131,4.136,29.3,1111122 
DISL,ioos:station:DISL:KATA:1,2013-12-01T02:00:00Z,30.2583,-88.2131,4.12,29.28,1111122 
DISL,ioos:station:DISL:KATA:1,2013-12-01T02:30:00Z,30.2583,-88.2131,4.1,29.24,1111122 
DISL,ioos:station:DISL:KATA:1,2013-12-01T03:00:00Z,30.2583,-88.2131,4.084,29.24,1111122 
DISL,ioos:station:DISL:KATA:1,2013-12-01T03:30:00Z,30.2583,-88.2131,4.058,29.28,1111122 
DISL,ioos:station:DISL:KATA:1,2013-12-01T04:00:00Z,30.2583,-88.2131,4.025,29.28,1111122 
DISL,ioos:station:DISL:KATA:1,2013-12-01T04:30:00Z,30.2583,-88.2131,4.006,29.2,1111122 
DISL,ioos:station:DISL:KATA:1,2013-12-01T05:00:00Z,30.2583,-88.2131,3.976,29.12,1111122 
DISL,ioos:station:DISL:KATA:1,2013-12-01T05:30:00Z,30.2583,-88.2131,3.936,29.01,1111122 
DISL,ioos:station:DISL:KATA:1,2013-12-01T06:00:00Z,30.2583,-88.2131,3.9,28.62,1111122 
DISL,ioos:station:DISL:KATA:1,2013-12-01T06:30:00Z,30.2583,-88.2131,3.849,27.77,1111122 
DISL,ioos:station:DISL:KATA:1,2013-12-01T07:00:00Z,30.2583,-88.2131,3.792,27.16,1111122 
DISL,ioos:station:DISL:KATA:1,2013-12-01T07:30:00Z,30.2583,-88.2131,3.735,26.97,1111122 
DISL,ioos:station:DISL:KATA:1,2013-12-01T08:00:00Z,30.2583,-88.2131,3.681,26.59,1111122 
DISL,ioos:station:DISL:KATA:1,2013-12-01T08:30:00Z,30.2583,-88.2131,3.626,27.04,1111122 
DISL,ioos:station:DISL:KATA:1,2013-12-01T09:00:00Z,30.2583,-88.2131,3.594,26.67,1111122 
DISL,ioos:station:DISL:KATA:1,2013-12-01T09:30:00Z,30.2583,-88.2131,3.563,26.41,1111122 
DISL,ioos:station:DISL:KATA:1,2013-12-01T10:00:00Z,30.2583,-88.2131,3.549,25.98,1111122 
DISL,ioos:station:DISL:KATA:1,2013-12-01T10:30:00Z,30.2583,-88.2131,3.54,25.93,1111122 
DISL,ioos:station:DISL:KATA:1,2013-12-01T11:00:00Z,30.2583,-88.2131,3.528,26.59,1111122 
DISL,ioos:station:DISL:KATA:1,2013-12-01T11:30:00Z,30.2583,-88.2131,3.534,26.95,1111122 
DISL,ioos:station:DISL:KATA:1,2013-12-01T12:00:00Z,30.2583,-88.2131,3.551,26.78,1111122 
DISL,ioos:station:DISL:KATA:1,2013-12-01T12:30:00Z,30.2583,-88.2131,3.563,27.13,1111122 
DISL,ioos:station:DISL:KATA:1,2013-12-01T13:00:00Z,30.2583,-88.2131,3.579,27.99,1111122 
DISL,ioos:station:DISL:KATA:1,2013-12-01T13:30:00Z,30.2583,-88.2131,3.608,28.11,1111122 
DISL,ioos:station:DISL:KATA:1,2013-12-01T14:00:00Z,30.2583,-88.2131,3.633,28.15,1111122 
DISL,ioos:station:DISL:KATA:1,2013-12-01T14:30:00Z,30.2583,-88.2131,3.654,28.31,1111122 
DISL,ioos:station:DISL:KATA:1,2013-12-01T15:00:00Z,30.2583,-88.2131,3.694,28.29,1111122 
DISL,ioos:station:DISL:KATA:1,2013-12-01T15:30:00Z,30.2583,-88.2131,3.725,28.28,1111122 
DISL,ioos:station:DISL:KATA:1,2013-12-01T16:00:00Z,30.2583,-88.2131,3.761,28.39,1111122 
DISL,ioos:station:DISL:KATA:1,2013-12-01T16:30:00Z,30.2583,-88.2131,3.806,28.47,1111122 
DISL,ioos:station:DISL:KATA:1,2013-12-01T17:00:00Z,30.2583,-88.2131,3.836,28.42,1111122 
DISL,ioos:station:DISL:KATA:1,2013-12-01T17:30:00Z,30.2583,-88.2131,3.869,28.37,1111122 
DISL,ioos:station:DISL:KATA:1,2013-12-01T18:00:00Z,30.2583,-88.2131,3.908,28.4,1111122 
DISL,ioos:station:DISL:KATA:1,2013-12-01T18:30:00Z,30.2583,-88.2131,3.933,28.44,1111122 
DISL,ioos:station:DISL:KATA:1,2013-12-01T19:00:00Z,30.2583,-88.2131,3.962,28.47,1111122 
DISL,ioos:station:DISL:KATA:1,2013-12-01T19:30:00Z,30.2583,-88.2131,3.996,28.54,1111122 
DISL,ioos:station:DISL:KATA:1,2013-12-01T20:00:00Z,30.2583,-88.2131,4.025,28.52,1111122 
DISL,ioos:station:DISL:KATA:1,2013-12-01T20:30:00Z,30.2583,-88.2131,4.061,28.51,1111122 
DISL,ioos:station:DISL:KATA:1,2013-12-01T21:00:00Z,30.2583,-88.2131,4.092,28.68,1111122 
DISL,ioos:station:DISL:KATA:1,2013-12-01T21:30:00Z,30.2583,-88.2131,4.135,28.77,1111122 
DISL,ioos:station:DISL:KATA:1,2013-12-01T22:00:00Z,30.2583,-88.2131,4.165,28.86,1111122 
DISL,ioos:station:DISL:KATA:1,2013-12-01T22:30:00Z,30.2583,-88.2131,4.186,28.9,1111122 
DISL,ioos:station:DISL:KATA:1,2013-12-01T23:00:00Z,30.2583,-88.2131,4.22,28.95,1111122 
DISL,ioos:station:DISL:KATA:1,2013-12-01T23:30:00Z,30.2583,-88.2131,4.252,28.94,1111122 
DISL,ioos:station:DISL:KATA:1,2013-12-02T00:00:00Z,30.2583,-88.2131,4.281,28.91,1111122 
DISL,ioos:station:DISL:KATA:1,2013-12-02T00:30:00Z,30.2583,-88.2131,4.311,28.9,1111122 
DISL,ioos:station:DISL:KATA:1,2013-12-02T01:00:00Z,30.2583,-88.2131,4.33,28.88,1111122 
DISL,ioos:station:DISL:KATA:1,2013-12-02T01:30:00Z,30.2583,-88.2131,4.342,28.86,1111122 
DISL,ioos:station:DISL:KATA:1,2013-12-02T02:00:00Z,30.2583,-88.2131,4.336,28.85,1111122 
DISL,ioos:station:DISL:KATA:1,2013-12-02T02:30:00Z,30.2583,-88.2131,4.334,28.83,1111122 
DISL,ioos:station:DISL:KATA:1,2013-12-02T03:00:00Z,30.2583,-88.2131,4.311,28.81,1111122 
DISL,ioos:station:DISL:KATA:1,2013-12-02T03:30:00Z,30.2583,-88.2131,4.284,28.79,1111122 
DISL,ioos:station:DISL:KATA:1,2013-12-02T04:00:00Z,30.2583,-88.2131,4.252,28.78,1111122 
DISL,ioos:station:DISL:KATA:1,2013-12-02T04:30:00Z,30.2583,-88.2131,4.221,28.76,1111122 
DISL,ioos:station:DISL:KATA:1,2013-12-02T05:00:00Z,30.2583,-88.2131,4.178,28.75,1111122 
DISL,ioos:station:DISL:KATA:1,2013-12-02T05:30:00Z,30.2583,-88.2131,4.139,28.7,1111122 
DISL,ioos:station:DISL:KATA:1,2013-12-02T06:00:00Z,30.2583,-88.2131,4.094,28.63,1111122 
DISL,ioos:station:DISL:KATA:1,2013-12-02T06:30:00Z,30.2583,-88.2131,4.048,28.47,1111122 
DISL,ioos:station:DISL:KATA:1,2013-12-02T07:00:00Z,30.2583,-88.2131,3.984,28.31,1111122 
DISL,ioos:station:DISL:KATA:1,2013-12-02T07:30:00Z,30.2583,-88.2131,3.924,28.16,1111122 
DISL,ioos:station:DISL:KATA:1,2013-12-02T08:00:00Z,30.2583,-88.2131,3.858,28.05,1111122 
DISL,ioos:station:DISL:KATA:1,2013-12-02T08:30:00Z,30.2583,-88.2131,3.798,27.77,1111122 
DISL,ioos:station:DISL:KATA:1,2013-12-02T09:00:00Z,30.2583,-88.2131,3.737,27.75,1111122 
DISL,ioos:station:DISL:KATA:1,2013-12-02T09:30:00Z,30.2583,-88.2131,3.679,27.42,1111122 
DISL,ioos:station:DISL:KATA:1,2013-12-02T10:00:00Z,30.2583,-88.2131,3.64,27.46,1111122 
DISL,ioos:station:DISL:KATA:1,2013-12-02T10:30:00Z,30.2583,-88.2131,3.598,27.27,1111122 
DISL,ioos:station:DISL:KATA:1,2013-12-02T11:00:00Z,30.2583,-88.2131,3.569,27.1,1111122 
DISL,ioos:station:DISL:KATA:1,2013-12-02T11:30:00Z,30.2583,-88.2131,3.545,26.89,1111122 
DISL,ioos:station:DISL:KATA:1,2013-12-02T12:00:00Z,30.2583,-88.2131,3.535,26.53,1111122 
DISL,ioos:station:DISL:KATA:1,2013-12-02T12:30:00Z,30.2583,-88.2131,3.543,26.75,1111122 
DISL,ioos:station:DISL:KATA:1,2013-12-02T13:00:00Z,30.2583,-88.2131,3.541,27.01,1111122 
DISL,ioos:station:DISL:KATA:1,2013-12-02T13:30:00Z,30.2583,-88.2131,3.569,27.21,1111122 
DISL,ioos:station:DISL:KATA:1,2013-12-02T14:00:00Z,30.2583,-88.2131,3.589,27.27,1111122 
DISL,ioos:station:DISL:KATA:1,2013-12-02T14:30:00Z,30.2583,-88.2131,3.623,27.22,1111122 
DISL,ioos:station:DISL:KATA:1,2013-12-02T15:00:00Z,30.2583,-88.2131,3.653,27.51,1111122 
DISL,ioos:station:DISL:KATA:1,2013-12-02T15:30:00Z,30.2583,-88.2131,3.68,27.65,1111122 
DISL,ioos:station:DISL:KATA:1,2013-12-02T16:00:00Z,30.2583,-88.2131,3.712,27.63,1111122 
DISL,ioos:station:DISL:KATA:1,2013-12-02T16:30:00Z,30.2583,-88.2131,3.748,27.65,1111122 
DISL,ioos:station:DISL:KATA:1,2013-12-02T17:00:00Z,30.2583,-88.2131,3.781,27.7,1111122 
DISL,ioos:station:DISL:KATA:1,2013-12-02T17:30:00Z,30.2583,-88.2131,3.822,27.77,1111122 
DISL,ioos:station:DISL:KATA:1,2013-12-02T18:00:00Z,30.2583,-88.2131,3.859,27.88,1111122 
DISL,ioos:station:DISL:KATA:1,2013-12-02T18:30:00Z,30.2583,-88.2131,3.897,27.93,1111122 
DISL,ioos:station:DISL:KATA:1,2013-12-02T19:00:00Z,30.2583,-88.2131,3.938,27.98,1111122 
DISL,ioos:station:DISL:KATA:1,2013-12-02T19:30:00Z,30.2583,-88.2131,3.972,28.0,1111122 
DISL,ioos:station:DISL:KATA:1,2013-12-02T20:00:00Z,30.2583,-88.2131,4.011,28.06,1111122 
DISL,ioos:station:DISL:KATA:1,2013-12-02T20:30:00Z,30.2583,-88.2131,4.05,28.08,1111122 
DISL,ioos:station:DISL:KATA:1,2013-12-02T21:00:00Z,30.2583,-88.2131,4.09,28.09,1111122 
DISL,ioos:station:DISL:KATA:1,2013-12-02T21:30:00Z,30.2583,-88.2131,4.126,28.11,1111122 
DISL,ioos:station:DISL:KATA:1,2013-12-02T22:00:00Z,30.2583,-88.2131,4.167,28.12,1111122 
DISL,ioos:station:DISL:KATA:1,2013-12-02T22:30:00Z,30.2583,-88.2131,4.215,28.19,1111122 
DISL,ioos:station:DISL:KATA:1,2013-12-02T23:00:00Z,30.2583,-88.2131,4.256,28.19,1111122 
DISL,ioos:station:DISL:KATA:1,2013-12-02T23:30:00Z,30.2583,-88.2131,4.3,28.14,1111122 
DISL,ioos:station:DISL:KATA:1,2013-12-03T00:00:00Z,30.2583,-88.2131,4.346,28.08,1111122 
DISL,ioos:station:DISL:KATA:1,2013-12-03T00:30:00Z,30.2583,-88.2131,4.383,28.04,1111122 
DISL,ioos:station:DISL:KATA:1,2013-12-03T01:00:00Z,30.2583,-88.2131,4.415,28.01,1111122 
DISL,ioos:station:DISL:KATA:1,2013-12-03T01:30:00Z,30.2583,-88.2131,4.451,28.02,1111122 
DISL,ioos:station:DISL:KATA:1,2013-12-03T02:00:00Z,30.2583,-88.2131,4.472,28.05,1111122 
DISL,ioos:station:DISL:KATA:1,2013-12-03T02:30:00Z,30.2583,-88.2131,4.495,28.11,1111122 
DISL,ioos:station:DISL:KATA:1,2013-12-03T03:00:00Z,30.2583,-88.2131,4.507,28.17,1111122 
DISL,ioos:station:DISL:KATA:1,2013-12-03T03:30:00Z,30.2583,-88.2131,4.498,28.17,1111122 
DISL,ioos:station:DISL:KATA:1,2013-12-03T04:00:00Z,30.2583,-88.2131,4.485,28.15,1111122 
DISL,ioos:station:DISL:KATA:1,2013-12-03T04:30:00Z,30.2583,-88.2131,4.454,28.17,1111122 
DISL,ioos:station:DISL:KATA:1,2013-12-03T05:00:00Z,30.2583,-88.2131,4.424,28.18,1111122 
DISL,ioos:station:DISL:KATA:1,2013-12-03T05:30:00Z,30.2583,-88.2131,4.382,28.2,1111122 
DISL,ioos:station:DISL:KATA:1,2013-12-03T06:00:00Z,30.2583,-88.2131,4.348,28.24,1111122 
DISL,ioos:station:DISL:KATA:1,2013-12-03T06:30:00Z,30.2583,-88.2131,4.305,28.26,1111122 
DISL,ioos:station:DISL:KATA:1,2013-12-03T07:00:00Z,30.2583,-88.2131,4.252,28.18,1111122 
DISL,ioos:station:DISL:KATA:1,2013-12-03T07:30:00Z,30.2583,-88.2131,4.2,28.2,1111122 
DISL,ioos:station:DISL:KATA:1,2013-12-03T08:00:00Z,30.2583,-88.2131,4.148,28.05,1111122 
DISL,ioos:station:DISL:KATA:1,2013-12-03T08:30:00Z,30.2583,-88.2131,4.083,27.92,1111122 
DISL,ioos:station:DISL:KATA:1,2013-12-03T09:00:00Z,30.2583,-88.2131,4.031,27.82,1111122 
DISL,ioos:station:DISL:KATA:1,2013-12-03T09:30:00Z,30.2583,-88.2131,3.982,27.66,1111122 
DISL,ioos:station:DISL:KATA:1,2013-12-03T10:00:00Z,30.2583,-88.2131,3.932,27.52,1111122 
DISL,ioos:station:DISL:KATA:1,2013-12-03T10:30:00Z,30.2583,-88.2131,3.885,27.24,1111122 
DISL,ioos:station:DISL:KATA:1,2013-12-03T11:00:00Z,30.2583,-88.2131,3.84,26.95,1111122 
DISL,ioos:station:DISL:KATA:1,2013-12-03T11:30:00Z,30.2583,-88.2131,3.801,26.98,1111122 
DISL,ioos:station:DISL:KATA:1,2013-12-03T12:00:00Z,30.2583,-88.2131,3.765,26.82,1111122 
DISL,ioos:station:DISL:KATA:1,2013-12-03T12:30:00Z,30.2583,-88.2131,3.734,26.84,1111122 
DISL,ioos:station:DISL:KATA:1,2013-12-03T13:00:00Z,30.2583,-88.2131,3.722,26.64,1111122 
DISL,ioos:station:DISL:KATA:1,2013-12-03T13:30:00Z,30.2583,-88.2131,3.722,26.57,1111122 
DISL,ioos:station:DISL:KATA:1,2013-12-03T14:00:00Z,30.2583,-88.2131,3.737,26.57,1111122 
DISL,ioos:station:DISL:KATA:1,2013-12-03T14:30:00Z,30.2583,-88.2131,3.759,26.66,1111122 
DISL,ioos:station:DISL:KATA:1,2013-12-03T15:00:00Z,30.2583,-88.2131,3.782,26.66,1111122 
DISL,ioos:station:DISL:KATA:1,2013-12-03T15:30:00Z,30.2583,-88.2131,3.8,26.69,1111122 
DISL,ioos:station:DISL:KATA:1,2013-12-03T16:00:00Z,30.2583,-88.2131,3.818,26.76,1111122 
DISL,ioos:station:DISL:KATA:1,2013-12-03T16:30:00Z,30.2583,-88.2131,3.831,26.79,1111122 
DISL,ioos:station:DISL:KATA:1,2013-12-03T17:00:00Z,30.2583,-88.2131,3.857,27.22,1111122 
DISL,ioos:station:DISL:KATA:1,2013-12-03T17:30:00Z,30.2583,-88.2131,3.884,27.48,1111122 
DISL,ioos:station:DISL:KATA:1,2013-12-03T18:00:00Z,30.2583,-88.2131,3.916,27.57,1111122 
DISL,ioos:station:DISL:KATA:1,2013-12-03T18:30:00Z,30.2583,-88.2131,3.942,27.52,1111122 
DISL,ioos:station:DISL:KATA:1,2013-12-03T19:00:00Z,30.2583,-88.2131,3.972,27.39,1111122 
DISL,ioos:station:DISL:KATA:1,2013-12-03T19:30:00Z,30.2583,-88.2131,4.003,27.32,1111122 
DISL,ioos:station:DISL:KATA:1,2013-12-03T20:00:00Z,30.2583,-88.2131,4.04,27.33,1111122 
DISL,ioos:station:DISL:KATA:1,2013-12-03T20:30:00Z,30.2583,-88.2131,4.076,27.27,1111122 
DISL,ioos:station:DISL:KATA:1,2013-12-03T21:00:00Z,30.2583,-88.2131,4.105,27.26,1111122 
DISL,ioos:station:DISL:KATA:1,2013-12-03T21:30:00Z,30.2583,-88.2131,4.136,27.37,1111122 
DISL,ioos:station:DISL:KATA:1,2013-12-03T22:00:00Z,30.2583,-88.2131,4.156,27.4,1111122 
DISL,ioos:station:DISL:KATA:1,2013-12-03T22:30:00Z,30.2583,-88.2131,4.187,27.5,1111122 
DISL,ioos:station:DISL:KATA:1,2013-12-03T23:00:00Z,30.2583,-88.2131,4.217,27.56,1111122 
DISL,ioos:station:DISL:KATA:1,2013-12-03T23:30:00Z,30.2583,-88.2131,4.258,27.62,1111122 
DISL,ioos:station:DISL:KATA:1,2013-12-04T00:00:00Z,30.2583,-88.2131,4.297,27.72,1111122 
DISL,ioos:station:DISL:KATA:1,2013-12-04T00:30:00Z,30.2583,-88.2131,4.328,27.84,1111122 
DISL,ioos:station:DISL:KATA:1,2013-12-04T01:00:00Z,30.2583,-88.2131,4.37,27.91,1111122 
DISL,ioos:station:DISL:KATA:1,2013-12-04T01:30:00Z,30.2583,-88.2131,4.401,27.93,1111122 
DISL,ioos:station:DISL:KATA:1,2013-12-04T02:00:00Z,30.2583,-88.2131,4.439,28.0,1111122 
DISL,ioos:station:DISL:KATA:1,2013-12-04T02:30:00Z,30.2583,-88.2131,4.469,28.04,1111122 
DISL,ioos:station:DISL:KATA:1,2013-12-04T03:00:00Z,30.2583,-88.2131,4.48,28.09,1111122 
DISL,ioos:station:DISL:KATA:1,2013-12-04T03:30:00Z,30.2583,-88.2131,4.487,28.26,1111122 
DISL,ioos:station:DISL:KATA:1,2013-12-04T04:00:00Z,30.2583,-88.2131,4.489,28.32,1111122 
DISL,ioos:station:DISL:KATA:1,2013-12-04T04:30:00Z,30.2583,-88.2131,4.477,28.36,1111122 
DISL,ioos:station:DISL:KATA:1,2013-12-04T05:00:00Z,30.2583,-88.2131,4.456,28.41,1111122 
DISL,ioos:station:DISL:KATA:1,2013-12-04T05:30:00Z,30.2583,-88.2131,4.428,28.47,1111122 
DISL,ioos:station:DISL:KATA:1,2013-12-04T06:00:00Z,30.2583,-88.2131,4.395,28.47,1111122 
DISL,ioos:station:DISL:KATA:1,2013-12-04T06:30:00Z,30.2583,-88.2131,4.355,28.51,1111122 
DISL,ioos:station:DISL:KATA:1,2013-12-04T07:00:00Z,30.2583,-88.2131,4.315,28.49,1111122 
DISL,ioos:station:DISL:KATA:1,2013-12-04T07:30:00Z,30.2583,-88.2131,4.282,28.49,1111122 
DISL,ioos:station:DISL:KATA:1,2013-12-04T08:00:00Z,30.2583,-88.2131,4.236,28.35,1111122 
DISL,ioos:station:DISL:KATA:1,2013-12-04T08:30:00Z,30.2583,-88.2131,4.188,28.33,1111122 
DISL,ioos:station:DISL:KATA:1,2013-12-04T09:00:00Z,30.2583,-88.2131,4.126,28.26,1111122 
DISL,ioos:station:DISL:KATA:1,2013-12-04T09:30:00Z,30.2583,-88.2131,4.066,28.14,1111122 
DISL,ioos:station:DISL:KATA:1,2013-12-04T10:00:00Z,30.2583,-88.2131,4.003,28.03,1111122 
DISL,ioos:station:DISL:KATA:1,2013-12-04T10:30:00Z,30.2583,-88.2131,3.943,27.88,1111122 
DISL,ioos:station:DISL:KATA:1,2013-12-04T11:00:00Z,30.2583,-88.2131,3.892,27.77,1111122 
DISL,ioos:station:DISL:KATA:1,2013-12-04T11:30:00Z,30.2583,-88.2131,3.839,27.62,1111122 
DISL,ioos:station:DISL:KATA:1,2013-12-04T12:00:00Z,30.2583,-88.2131,3.802,27.58,1111122 
DISL,ioos:station:DISL:KATA:1,2013-12-04T12:30:00Z,30.2583,-88.2131,3.766,27.48,1111122 
DISL,ioos:station:DISL:KATA:1,2013-12-04T13:00:00Z,30.2583,-88.2131,3.743,27.4,1111122 
DISL,ioos:station:DISL:KATA:1,2013-12-04T13:30:00Z,30.2583,-88.2131,3.727,27.34,1111122 
DISL,ioos:station:DISL:KATA:1,2013-12-04T14:00:00Z,30.2583,-88.2131,3.724,27.29,1111122 
DISL,ioos:station:DISL:KATA:1,2013-12-04T14:30:00Z,30.2583,-88.2131,3.734,27.24,1111122 
DISL,ioos:station:DISL:KATA:1,2013-12-04T15:00:00Z,30.2583,-88.2131,3.749,27.21,1111122 
DISL,ioos:station:DISL:KATA:1,2013-12-04T15:30:00Z,30.2583,-88.2131,3.773,27.22,1111122 
DISL,ioos:station:DISL:KATA:1,2013-12-04T16:00:00Z,30.2583,-88.2131,3.795,27.23,1111122 
DISL,ioos:station:DISL:KATA:1,2013-12-04T16:30:00Z,30.2583,-88.2131,3.817,27.25,1111122 
DISL,ioos:station:DISL:KATA:1,2013-12-04T17:00:00Z,30.2583,-88.2131,3.827,27.26,1111122 
DISL,ioos:station:DISL:KATA:1,2013-12-04T17:30:00Z,30.2583,-88.2131,3.844,27.27,1111122 
DISL,ioos:station:DISL:KATA:1,2013-12-04T18:00:00Z,30.2583,-88.2131,3.868,27.3,1111122 
DISL,ioos:station:DISL:KATA:1,2013-12-04T18:30:00Z,30.2583,-88.2131,3.893,28.11,1111122 
DISL,ioos:station:DISL:KATA:1,2013-12-04T19:00:00Z,30.2583,-88.2131,3.922,28.16,1111122 
DISL,ioos:station:DISL:KATA:1,2013-12-04T19:30:00Z,30.2583,-88.2131,3.957,28.1,1111122 
DISL,ioos:station:DISL:KATA:1,2013-12-04T20:00:00Z,30.2583,-88.2131,3.989,28.01,1111122 
DISL,ioos:station:DISL:KATA:1,2013-12-04T20:30:00Z,30.2583,-88.2131,4.019,27.98,1111122 
DISL,ioos:station:DISL:KATA:1,2013-12-04T21:00:00Z,30.2583,-88.2131,4.056,27.88,1111122 
DISL,ioos:station:DISL:KATA:1,2013-12-04T21:30:00Z,30.2583,-88.2131,4.088,27.86,1111122 
DISL,ioos:station:DISL:KATA:1,2013-12-04T22:00:00Z,30.2583,-88.2131,4.119,27.86,1111122 
DISL,ioos:station:DISL:KATA:1,2013-12-04T22:30:00Z,30.2583,-88.2131,4.153,27.92,1111122 
DISL,ioos:station:DISL:KATA:1,2013-12-04T23:00:00Z,30.2583,-88.2131,4.187,28.02,1111122 
DISL,ioos:station:DISL:KATA:1,2013-12-04T23:30:00Z,30.2583,-88.2131,4.22,28.09,1111122 
DISL,ioos:station:DISL:KATA:1,2013-12-05T00:00:00Z,30.2583,-88.2131,4.256,28.09,1111122 
DISL,ioos:station:DISL:KATA:1,2013-12-05T00:30:00Z,30.2583,-88.2131,4.293,28.15,1111122 
DISL,ioos:station:DISL:KATA:1,2013-12-05T01:00:00Z,30.2583,-88.2131,4.336,28.15,1111122 
DISL,ioos:station:DISL:KATA:1,2013-12-05T01:30:00Z,30.2583,-88.2131,4.39,28.22,1111122 
DISL,ioos:station:DISL:KATA:1,2013-12-05T02:00:00Z,30.2583,-88.2131,4.427,28.32,1111122 
DISL,ioos:station:DISL:KATA:1,2013-12-05T02:30:00Z,30.2583,-88.2131,4.46,28.39,1111122 
DISL,ioos:station:DISL:KATA:1,2013-12-05T03:00:00Z,30.2583,-88.2131,4.492,28.43,1111122 
DISL,ioos:station:DISL:KATA:1,2013-12-05T03:30:00Z,30.2583,-88.2131,4.521,28.47,1111122 
DISL,ioos:station:DISL:KATA:1,2013-12-05T04:00:00Z,30.2583,-88.2131,4.533,28.52,1111122 
DISL,ioos:station:DISL:KATA:1,2013-12-05T04:30:00Z,30.2583,-88.2131,4.53,28.54,1111122 
DISL,ioos:station:DISL:KATA:1,2013-12-05T05:00:00Z,30.2583,-88.2131,4.517,28.56,1111122 
DISL,ioos:station:DISL:KATA:1,2013-12-05T05:30:00Z,30.2583,-88.2131,4.487,28.59,1111122 
DISL,ioos:station:DISL:KATA:1,2013-12-05T06:00:00Z,30.2583,-88.2131,4.458,28.6,1111122 
DISL,ioos:station:DISL:KATA:1,2013-12-05T06:30:00Z,30.2583,-88.2131,4.416,28.6,1111122 
DISL,ioos:station:DISL:KATA:1,2013-12-05T07:00:00Z,30.2583,-88.2131,4.374,28.62,1111122 
DISL,ioos:station:DISL:KATA:1,2013-12-05T07:30:00Z,30.2583,-88.2131,4.344,28.63,1111122 
DISL,ioos:station:DISL:KATA:1,2013-12-05T08:00:00Z,30.2583,-88.2131,4.309,28.64,1111122 
DISL,ioos:station:DISL:KATA:1,2013-12-05T08:30:00Z,30.2583,-88.2131,4.265,28.64,1111122 
DISL,ioos:station:DISL:KATA:1,2013-12-05T09:00:00Z,30.2583,-88.2131,4.216,28.63,1111122 
DISL,ioos:station:DISL:KATA:1,2013-12-05T09:30:00Z,30.2583,-88.2131,4.165,28.56,1111122 
DISL,ioos:station:DISL:KATA:1,2013-12-05T10:00:00Z,30.2583,-88.2131,4.109,28.44,1111122 
DISL,ioos:station:DISL:KATA:1,2013-12-05T10:30:00Z,30.2583,-88.2131,4.049,28.35,1111122 
DISL,ioos:station:DISL:KATA:1,2013-12-05T11:00:00Z,30.2583,-88.2131,3.991,28.29,1111122 
DISL,ioos:station:DISL:KATA:1,2013-12-05T11:30:00Z,30.2583,-88.2131,3.936,28.26,1111122 
DISL,ioos:station:DISL:KATA:1,2013-12-05T12:00:00Z,30.2583,-88.2131,3.882,28.15,1111122 
DISL,ioos:station:DISL:KATA:1,2013-12-05T12:30:00Z,30.2583,-88.2131,3.836,28.03,1111122 
DISL,ioos:station:DISL:KATA:1,2013-12-05T13:00:00Z,30.2583,-88.2131,3.804,27.97,1111122 
DISL,ioos:station:DISL:KATA:1,2013-12-05T13:30:00Z,30.2583,-88.2131,3.771,27.83,1111122 
DISL,ioos:station:DISL:KATA:1,2013-12-05T14:00:00Z,30.2583,-88.2131,3.747,27.66,1111122 
DISL,ioos:station:DISL:KATA:1,2013-12-05T14:30:00Z,30.2583,-88.2131,3.735,27.64,1111122 
DISL,ioos:station:DISL:KATA:1,2013-12-05T15:00:00Z,30.2583,-88.2131,3.729,27.59,1111122 
DISL,ioos:station:DISL:KATA:1,2013-12-05T15:30:00Z,30.2583,-88.2131,3.737,27.58,1111122 
DISL,ioos:station:DISL:KATA:1,2013-12-05T16:00:00Z,30.2583,-88.2131,3.749,27.61,1111122 
DISL,ioos:station:DISL:KATA:1,2013-12-05T16:30:00Z,30.2583,-88.2131,3.766,27.66,1111122 
DISL,ioos:station:DISL:KATA:1,2013-12-05T17:00:00Z,30.2583,-88.2131,3.79,27.71,1111122 
DISL,ioos:station:DISL:KATA:1,2013-12-05T17:30:00Z,30.2583,-88.2131,3.809,27.77,1111122 
DISL,ioos:station:DISL:KATA:1,2013-12-05T18:00:00Z,30.2583,-88.2131,3.827,27.77,1111122 
DISL,ioos:station:DISL:KATA:1,2013-12-05T18:30:00Z,30.2583,-88.2131,3.844,27.86,1111122 
DISL,ioos:station:DISL:KATA:1,2013-12-05T19:00:00Z,30.2583,-88.2131,3.864,28.25,1111122 
DISL,ioos:station:DISL:KATA:1,2013-12-05T19:30:00Z,30.2583,-88.2131,3.889,28.32,1111122 
DISL,ioos:station:DISL:KATA:1,2013-12-05T20:00:00Z,30.2583,-88.2131,3.923,28.34,1111122 
DISL,ioos:station:DISL:KATA:1,2013-12-05T20:30:00Z,30.2583,-88.2131,3.952,28.21,1111122 
DISL,ioos:station:DISL:KATA:1,2013-12-05T21:00:00Z,30.2583,-88.2131,3.988,28.11,1111122 
DISL,ioos:station:DISL:KATA:1,2013-12-05T21:30:00Z,30.2583,-88.2131,4.026,28.1,1111122 
DISL,ioos:station:DISL:KATA:1,2013-12-05T22:00:00Z,30.2583,-88.2131,4.055,28.19,1111122 
DISL,ioos:station:DISL:KATA:1,2013-12-05T22:30:00Z,30.2583,-88.2131,4.088,28.22,1111122 
DISL,ioos:station:DISL:KATA:1,2013-12-05T23:00:00Z,30.2583,-88.2131,4.118,28.29,1111122 
DISL,ioos:station:DISL:KATA:1,2013-12-05T23:30:00Z,30.2583,-88.2131,4.14,28.26,1111122 
DISL,ioos:station:DISL:KATA:1,2013-12-06T00:00:00Z,30.2583,-88.2131,4.163,28.25,1111122 
DISL,ioos:station:DISL:KATA:1,2013-12-06T00:30:00Z,30.2583,-88.2131,4.199,28.26,1111122 
DISL,ioos:station:DISL:KATA:1,2013-12-06T01:00:00Z,30.2583,-88.2131,4.233,28.32,1111122 
DISL,ioos:station:DISL:KATA:1,2013-12-06T01:30:00Z,30.2583,-88.2131,4.273,28.38,1111122 
DISL,ioos:station:DISL:KATA:1,2013-12-06T02:00:00Z,30.2583,-88.2131,4.316,28.47,1111122 
DISL,ioos:station:DISL:KATA:1,2013-12-06T02:30:00Z,30.2583,-88.2131,4.359,28.52,1111122 
DISL,ioos:station:DISL:KATA:1,2013-12-06T03:00:00Z,30.2583,-88.2131,4.403,28.5,1111122 
DISL,ioos:station:DISL:KATA:1,2013-12-06T03:30:00Z,30.2583,-88.2131,4.447,28.46,1111122 
DISL,ioos:station:DISL:KATA:1,2013-12-06T04:00:00Z,30.2583,-88.2131,4.476,28.36,1111122 
DISL,ioos:station:DISL:KATA:1,2013-12-06T04:30:00Z,30.2583,-88.2131,4.493,28.34,1111122 
DISL,ioos:station:DISL:KATA:1,2013-12-06T05:00:00Z,30.2583,-88.2131,4.496,28.39,1111122 
DISL,ioos:station:DISL:KATA:1,2013-12-06T05:30:00Z,30.2583,-88.2131,4.485,28.43,1111122 
DISL,ioos:station:DISL:KATA:1,2013-12-06T06:00:00Z,30.2583,-88.2131,4.46,28.44,1111122 
DISL,ioos:station:DISL:KATA:1,2013-12-06T06:30:00Z,30.2583,-88.2131,4.437,28.47,1111122 
DISL,ioos:station:DISL:KATA:1,2013-12-06T07:00:00Z,30.2583,-88.2131,4.399,28.49,1111122 
DISL,ioos:station:DISL:KATA:1,2013-12-06T07:30:00Z,30.2583,-88.2131,4.369,28.49,1111122 
DISL,ioos:station:DISL:KATA:1,2013-12-06T08:00:00Z,30.2583,-88.2131,4.349,28.5,1111122 
DISL,ioos:station:DISL:KATA:1,2013-12-06T08:30:00Z,30.2583,-88.2131,4.336,28.51,1111122 
DISL,ioos:station:DISL:KATA:1,2013-12-06T09:00:00Z,30.2583,-88.2131,4.315,28.52,1111122 
DISL,ioos:station:DISL:KATA:1,2013-12-06T09:30:00Z,30.2583,-88.2131,4.295,28.52,1111122 
DISL,ioos:station:DISL:KATA:1,2013-12-06T10:00:00Z,30.2583,-88.2131,4.261,28.49,1111122 
DISL,ioos:station:DISL:KATA:1,2013-12-06T10:30:00Z,30.2583,-88.2131,4.219,28.48,1111122 
DISL,ioos:station:DISL:KATA:1,2013-12-06T11:00:00Z,30.2583,-88.2131,4.168,28.46,1111122 
DISL,ioos:station:DISL:KATA:1,2013-12-06T11:30:00Z,30.2583,-88.2131,4.119,28.42,1111122 
DISL,ioos:station:DISL:KATA:1,2013-12-06T12:00:00Z,30.2583,-88.2131,4.067,28.42,1111122 
DISL,ioos:station:DISL:KATA:1,2013-12-06T12:30:00Z,30.2583,-88.2131,4.008,28.49,1111122 
DISL,ioos:station:DISL:KATA:1,2013-12-06T13:00:00Z,30.2583,-88.2131,3.953,28.51,1111122 
DISL,ioos:station:DISL:KATA:1,2013-12-06T13:30:00Z,30.2583,-88.2131,3.914,28.49,1111122 
DISL,ioos:station:DISL:KATA:1,2013-12-06T14:00:00Z,30.2583,-88.2131,3.883,28.43,1111122 